Weather History for Cherokee, IA

Change the Weather History Date:

Saturday, April 5, 2014

  Actual Average Record
Temperature  
Mean Temperature 38 °F -  
Max Temperature 56 °F 52 °F 78 °F (2006)
Min Temperature 19 °F 29 °F 14 °F (1968)
Degree Days  
Heating Degree Days 28    
Moisture  
Dew Point 29 °F    
Average Humidity 74    
Maximum Humidity 100    
Minimum Humidity 39    
Precipitation  
Precipitation 0.00 in - - ()
Sea Level Pressure  
Sea Level Pressure 30.04 in    
Wind  
Wind Speed 7 mph (South)    
Max Wind Speed 22 mph    
Max Gust Speed 26 mph    
Visibility 9 miles    
Events      
Averages and records for this station are not official NWS values.
T = Trace of Precipitation, MM = Missing Value Source: NWS Daily Summary

Daily Weather History Graph

Daily Weather History Graph

Search for Another Location

Airport:

Trip Planner

Search our weather history database for the weather conditions in past years. The results will help you decide how hot, cold, wet, or windy it might be!

Date:

Astronomy

Apr. 05, 2014 Rise Set
Actual Time 6:57 AM CDT 7:52 PM CDT
Civil Twilight 6:28 AM CDT 8:21 PM CDT
Nautical Twilight 5:54 AM CDT 8:56 PM CDT
Astronomical Twilight 5:19 AM CDT 9:31 PM CDT
Moon 11:01 AM CDT (4/5) 1:08 AM CDT (4/5)
Length of Visible Light 13h 52m
Length of Day
12h 55m
Waxing Crescent, 34% of the Moon is Illuminated
Apr 5
Waxing Crescent
Apr 7
First Quarter
Apr 15
Full
Apr 22
Last Quarter
Apr 29
New

Hourly Weather History & Observations

Time (CDT) Temp. Windchill Dew Point Humidity Pressure Visibility Wind Dir Wind Speed Gust Speed Precip Events Conditions
12:15 AM 26.2 °F 20.7 °F 24.1 °F 92% 30.12 in 10.0 mi South 4.6 mph - N/A   Clear
12:35 AM 26.4 °F 22.4 °F 24.6 °F 93% 30.12 in 10.0 mi South 3.5 mph - N/A   Clear
12:55 AM 25.3 °F 21.1 °F 23.5 °F 93% 30.12 in 10.0 mi SSE 3.5 mph - N/A   Clear
1:15 AM 24.8 °F - 23.5 °F 95% 30.12 in 10.0 mi Calm Calm - N/A   Clear
1:35 AM 24.8 °F - 23.4 °F 94% 30.12 in 10.0 mi Calm Calm - N/A   Clear
1:55 AM 23.2 °F - 22.1 °F 96% 30.12 in 10.0 mi Calm Calm - N/A   Clear
2:15 AM 22.8 °F - 21.7 °F 96% 30.12 in 7.0 mi Calm Calm - N/A   Clear
2:35 AM 23.4 °F - 22.5 °F 96% 30.12 in 10.0 mi Calm Calm - N/A   Clear
2:55 AM 22.3 °F - 21.2 °F 96% 30.11 in 7.0 mi Calm Calm - N/A   Clear
3:15 AM 22.1 °F - 21.2 °F 96% 30.11 in 7.0 mi Calm Calm - N/A   Clear
3:35 AM 22.1 °F - 21.2 °F 96% 30.10 in 7.0 mi Calm Calm - N/A   Clear
3:55 AM 21.4 °F - 20.3 °F 96% 30.11 in 5.0 mi Calm Calm - N/A   Clear
4:15 AM 21.2 °F - 20.3 °F 96% 30.10 in 7.0 mi Calm Calm - N/A   Clear
4:35 AM 20.5 °F - 19.6 °F 96% 30.11 in 10.0 mi Calm Calm - N/A   Clear
4:55 AM 19.9 °F - 19.2 °F 97% 30.10 in 7.0 mi Calm Calm - N/A   Clear
5:15 AM 19.9 °F - 19.2 °F 97% 30.09 in 7.0 mi Calm Calm - N/A   Clear
5:35 AM 19.8 °F - 18.9 °F 96% 30.09 in 7.0 mi Calm Calm - N/A   Clear
5:55 AM 20.3 °F - 19.4 °F 96% 30.10 in 7.0 mi Calm Calm - N/A   Clear
6:15 AM 20.1 °F 15.2 °F 19.6 °F 98% 30.10 in 10.0 mi SSE 3.5 mph - N/A   Clear
6:35 AM 22.1 °F - 21.9 °F 99% 30.10 in 10.0 mi Calm Calm - N/A   Clear
6:55 AM 20.7 °F - 20.1 °F 98% 30.11 in 10.0 mi Calm Calm - N/A   Clear
7:15 AM 19.2 °F - 18.5 °F 97% 30.11 in 7.0 mi Calm Calm - N/A   Clear
7:35 AM 20.1 °F - 20.1 °F 100% 30.12 in 7.0 mi Calm Calm - N/A   Clear
7:55 AM 21.9 °F - 21.9 °F 100% 30.12 in 7.0 mi Calm Calm - N/A   Clear
8:15 AM 24.3 °F 18.4 °F 24.3 °F 100% 30.12 in 7.0 mi South 4.6 mph - N/A   Clear
8:35 AM 27.7 °F 19.6 °F 27.7 °F 100% 30.12 in 7.0 mi South 8.1 mph - N/A   Clear
8:55 AM 30.0 °F 21.7 °F 30.0 °F 100% 30.11 in 10.0 mi South 9.2 mph - N/A   Clear
9:15 AM 32.0 °F 22.1 °F 31.3 °F 97% 30.12 in 10.0 mi South 13.8 mph - N/A   Clear
9:35 AM 33.1 °F 24.4 °F 31.8 °F 95% 30.12 in 10.0 mi South 11.5 mph - N/A   Clear
9:55 AM 34.7 °F 25.5 °F 32.0 °F 90% 30.11 in 10.0 mi South 13.8 mph 17.3 mph N/A   Clear
10:15 AM 35.6 °F 27.5 °F 31.6 °F 85% 30.11 in 10.0 mi South 11.5 mph - N/A   Clear
10:35 AM 37.4 °F 30.8 °F 32.0 °F 81% 30.11 in 10.0 mi South 9.2 mph - N/A   Clear
10:55 AM 38.8 °F 30.4 °F 32.4 °F 78% 30.11 in 10.0 mi SSW 15.0 mph - N/A   Clear
11:15 AM 39.9 °F 32.1 °F 32.5 °F 75% 30.11 in 10.0 mi South 13.8 mph 19.6 mph N/A   Clear
11:35 AM 41.4 °F 34.0 °F 34.0 °F 75% 30.10 in 10.0 mi SSW 13.8 mph - N/A   Clear
11:55 AM 41.9 °F 34.3 °F 33.6 °F 72% 30.09 in 10.0 mi SSW 15.0 mph 19.6 mph N/A   Clear
12:15 PM 42.8 °F 35.4 °F 34.5 °F 73% 30.08 in 10.0 mi South 15.0 mph 19.6 mph N/A   Clear
12:35 PM 44.2 °F 37.0 °F 35.4 °F 71% 30.08 in 10.0 mi South 16.1 mph 20.7 mph N/A   Clear
12:55 PM 45.0 °F 37.9 °F 36.0 °F 71% 30.07 in 10.0 mi South 16.1 mph 21.9 mph N/A   Clear
1:15 PM 46.4 °F 40.4 °F 36.3 °F 68% 30.06 in 10.0 mi South 13.8 mph - N/A   Clear
1:35 PM 48.0 °F - 37.2 °F 66% 30.05 in 10.0 mi South 17.3 mph - N/A   Clear
1:55 PM 49.3 °F - 37.0 °F 63% 30.04 in 10.0 mi South 17.3 mph 21.9 mph N/A   Clear
2:15 PM 50.2 °F - 36.7 °F 60% 30.04 in 10.0 mi South 16.1 mph 20.7 mph N/A   Clear
2:35 PM 50.9 °F - 36.5 °F 58% 30.03 in 10.0 mi South 18.4 mph - N/A   Clear
2:55 PM 51.6 °F - 35.8 °F 55% 30.01 in 10.0 mi South 16.1 mph 21.9 mph N/A   Clear
3:15 PM 52.9 °F - 35.2 °F 51% 30.01 in 10.0 mi South 18.4 mph 24.2 mph N/A   Clear
3:35 PM 53.4 °F - 35.4 °F 51% 29.99 in 10.0 mi South 16.1 mph 21.9 mph N/A   Clear
3:55 PM 54.9 °F - 34.0 °F 45% 29.99 in 10.0 mi South 18.4 mph 23.0 mph N/A   Clear
4:15 PM 55.0 °F - 34.3 °F 46% 29.98 in 10.0 mi South 17.3 mph 24.2 mph N/A   Clear
4:35 PM 55.8 °F - 33.8 °F 44% 29.97 in 10.0 mi South 19.6 mph 24.2 mph N/A   Clear
4:55 PM 56.3 °F - 32.9 °F 41% 29.96 in 10.0 mi South 16.1 mph 23.0 mph N/A   Clear
5:15 PM 56.7 °F - 32.4 °F 40% 29.96 in 10.0 mi South 21.9 mph 26.5 mph N/A   Clear
5:35 PM 56.3 °F - 32.4 °F 40% 29.95 in 10.0 mi South 15.0 mph 20.7 mph N/A   Clear
5:55 PM 56.5 °F - 32.0 °F 39% 29.95 in 10.0 mi South 20.7 mph 26.5 mph N/A   Clear
6:15 PM 56.3 °F - 31.8 °F 39% 29.94 in 10.0 mi South 19.6 mph 25.3 mph N/A   Clear
6:35 PM 55.6 °F - 32.0 °F 41% 29.95 in 10.0 mi South 15.0 mph 20.7 mph N/A   Clear
6:55 PM 54.7 °F - 32.0 °F 42% 29.95 in 10.0 mi South 15.0 mph 19.6 mph N/A   Clear
7:15 PM 52.7 °F - 31.6 °F 45% 29.95 in 10.0 mi South 12.7 mph - N/A   Clear
7:35 PM 50.7 °F - 31.3 °F 47% 29.95 in 10.0 mi South 9.2 mph - N/A   Clear
7:55 PM 48.6 °F - 31.6 °F 52% 29.94 in 10.0 mi South 8.1 mph - N/A   Clear
8:15 PM 46.4 °F 42.4 °F 30.7 °F 54% 29.94 in 10.0 mi South 8.1 mph - N/A   Clear
8:35 PM 45.5 °F 40.8 °F 30.6 °F 56% 29.94 in 10.0 mi South 9.2 mph - N/A   Clear
8:55 PM 45.5 °F 39.9 °F 30.2 °F 55% 29.94 in 10.0 mi SSE 11.5 mph - N/A   Clear
9:15 PM 45.0 °F 39.3 °F 29.8 °F 55% 29.95 in 10.0 mi SSE 11.5 mph - N/A   Clear
9:35 PM 44.6 °F 39.7 °F 29.5 °F 55% 29.95 in 10.0 mi South 9.2 mph - N/A   Clear
9:55 PM 43.3 °F 38.6 °F 29.5 °F 58% 29.95 in 10.0 mi South 8.1 mph - N/A   Clear
10:15 PM 41.2 °F 36.0 °F 29.8 °F 64% 29.95 in 10.0 mi South 8.1 mph - N/A   Clear
10:35 PM 40.5 °F 34.6 °F 29.7 °F 65% 29.95 in 10.0 mi South 9.2 mph - N/A   Clear
10:55 PM 40.1 °F 34.1 °F 29.5 °F 66% 29.95 in 10.0 mi South 9.2 mph - N/A   Clear
11:15 PM 40.1 °F 34.1 °F 29.7 °F 66% 29.94 in 10.0 mi South 9.2 mph - N/A   Clear
11:35 PM 40.1 °F 34.1 °F 29.3 °F 65% 29.94 in 10.0 mi South 9.2 mph - N/A   Clear
11:55 PM 39.4 °F 34.5 °F 29.3 °F 67% 29.94 in 10.0 mi South 6.9 mph - N/A   Clear